Location: Nantong Television Tower
(32.0188°N, 120.8512°E)
Time: 00:12:23
(UTC+08:00)

Daily predictions for brighter satellites

Satellite Brightness Start Highest point End
(mag) Time Altitude Azimuth Time Altitude Azimuth Time Altitude Azimuth
CZ-3 R/B 4.5 00:52:23 10° W 02:17:48 53° SE 02:26:35 10° ESE
SL-16 R/B 4.3 03:43:49 22° ESE 03:43:49 22° ESE 03:46:16 10° SE
ATLAS 3B CENTAUR R/B 3.9 04:18:34 22° SSE 04:19:39 23° SE 04:26:18 10° E
Cosmos 2221 3.9 04:38:40 10° SSE 04:42:40 37° E 04:46:39 10° NNE
Thor Agena Rocket 3.5 04:37:31 10° SSE 04:42:46 82° ENE 04:43:05 77° NNE
BREEZE-M DEB (TANK) 4.2 04:40:32 28° NW 04:48:49 76° NE 04:53:24 10° ESE
ISS -0.7 04:51:37 16° SE 04:51:37 16° SE 04:52:27 10° SE
DMSP 5D-2 F-14 4.5 04:46:39 10° NNE 04:52:05 84° WNW 04:57:30 10° SSW
Cosmos 2233 Rocket 4.3 04:47:31 10° SSW 04:55:12 46° NNW 04:59:50 10° N
Cosmos 2151 3.1 04:59:40 56° NNE 05:00:27 74° E 05:04:41 10° S
Cosmos 2346 Rocket 4.3 05:01:26 15° NNW 05:06:32 68° W 05:12:31 10° S
Tiangong 2 3.5 05:10:58 16° NNE 05:10:58 16° NNE 05:11:55 10° NE
NOAA 6 3.9 05:04:35 10° N 05:09:45 67° WNW 05:14:53 10° SSW
ATLAS 2A CENTAUR R/B 3.2 05:10:56 37° SW 05:11:47 42° S 05:14:16 10° ESE
Cosmos 1777 Rocket 4.4 05:14:18 41° NW 05:14:18 41° NW 05:18:27 10° N
Milstar 3 Cent rocket 3.8 05:08:18 12° SW 05:17:44 43° SSE 05:23:21 10° E
IUS-9 SRM-1 3.3 05:17:32 29° SW 05:19:15 39° S 05:21:45 10° ESE
Meteor 2-12 Rocket 4.3 05:14:28 10° S 05:20:36 81° W 05:26:47 10° N
USA 229 DEB 4.4 05:21:11 30° W 05:22:15 32° WSW 05:28:27 10° S
USA 229 4.4 05:21:13 31° W 05:22:21 32° WSW 05:28:35 10° S
Cosmos 2034 Rocket 4.1 05:16:42 10° S 05:22:50 76° E 05:29:05 10° N
OAO 2 Rocket 3.3 05:22:28 42° W 05:24:00 66° SSW 05:28:52 10° ESE
SL-16 R/B 3.2 05:25:47 27° WSW 05:25:47 27° WSW 05:29:51 10° SSW
COSMO-SKYMED 1 2.4 05:27:33 10° S 05:31:52 69° W 05:36:07 10° NNW
Cosmos 1513 Rocket 4.4 05:27:11 10° S 05:33:26 78° W 05:39:50 10° N
NOSS 3-1 (A) 4.1 05:28:45 11° NNW 05:36:25 86° WSW 05:44:55 10° SSE
SL-14 R/B 3.9 05:36:36 33° W 05:36:41 33° W 05:40:19 10° SSW
Cosmos 1340 Rocket 3.0 05:35:54 26° NW 05:37:43 47° W 05:41:33 10° SSW
Cosmos 1805 Rocket 3.5 05:35:24 10° N 05:39:49 89° W 05:44:10 10° S
ATLAS 2AS CENTAUR R/B 4.4 05:37:35 10° NNW 05:44:44 34° NE 05:51:24 10° ESE
Cosmos 292 Rocket 3.7 05:42:11 10° NNW 05:46:59 82° WSW 05:51:47 10° SSE
Cosmos 1184 Rocket 2.9 05:44:09 10° N 05:47:28 78° E 05:50:46 10° S
Cosmos 2058 3.5 05:47:40 17° NW 05:50:15 33° W 05:53:59 10° SSW
Cosmos 1464 Rocket 4.3 05:44:45 10° SSW 05:50:44 44° W 05:56:43 10° N
Cosmos 389 Rocket 2.4 05:47:54 10° SSW 05:51:33 74° W 05:55:14 10° N
Ariane Rocket 3.1 05:48:07 10° N 05:53:06 54° WNW 05:58:03 10° SSW
Cosmos 2228 Rocket 3.4 05:49:15 10° S 05:53:39 71° E 05:58:03 10° N
Cosmos 1908 3.1 05:49:52 10° S 05:53:40 78° W 05:57:30 10° N
SMAP 4.2 05:50:28 10° NNE 05:54:58 48° E 05:59:26 10° S
Sich 1 3.0 05:50:51 10° N 05:55:11 85° E 05:59:28 10° S
EP 1 4.3 05:53:00 10° SSW 05:55:52 80° ESE 05:58:26 10° NNE
DELTA 2 R/B (1) 4.3 05:52:30 19° WNW 05:56:02 38° N 06:01:13 10° ENE
CZ-3 R/B 4.5 05:50:48 11° W 05:57:07 13° WSW 06:02:02 10° SW
Cosmos 923 Rocket 4.1 05:53:09 10° NNW 05:58:17 56° WSW 06:03:25 10° S
Cosmos 1328 Rocket 3.6 05:56:45 10° S 06:01:04 83° E 06:05:26 10° N
Cosmos 1898 Rocket 3.5 05:56:45 10° SSW 06:01:59 85° WNW 06:07:18 10° NNE
Genesis I 4.5 06:01:10 17° WNW 06:02:53 23° WSW 06:06:00 10° SSW
Cosmos 1633 Rocket 3.0 05:59:34 10° N 06:03:55 87° W 06:08:14 10° S
Cosmos 1943 3.2 05:58:36 10° NNW 06:04:20 89° ENE 06:10:00 10° SSE
Cosmos 1680 Rocket 3.5 06:00:03 10° NNW 06:05:19 65° WSW 06:10:34 10° S
Cosmos 1151 Rocket 4.5 06:01:27 10° SSE 06:05:27 40° E 06:09:27 10° NNE
Gbstr 26 Del rocket 4.3 06:02:26 13° W 06:06:46 36° NNW 06:12:40 10° NNE
Cosmos 1300 4.4 06:03:52 10° SSE 06:07:24 37° E 06:10:57 10° NNE
ASTRO E2 3.8 06:04:14 10° SW 06:08:02 42° SSE 06:11:51 10° E
IDEFIX/ARIANE 42P 2.7 06:04:53 10° NNE 06:10:11 86° ESE 06:15:27 10° SSW
ERBS 4.4 06:09:14 12° W 06:10:14 13° WSW 06:11:50 10° SSW
Cosmos 1356 Rocket 4.0 06:07:19 10° NNW 06:11:09 37° W 06:15:02 10° SSW
Cosmos 1515 Rocket 3.7 06:08:22 10° S 06:12:46 83° E 06:17:13 10° N
Cosmos 2150 Rocket 4.0 06:09:07 10° SSW 06:14:33 80° WNW 06:19:57 10° NNE
PAYLOAD A 4.0 06:10:03 10° N 06:14:49 53° WNW 06:19:25 10° SSW
CSL-04 Debris 4.4 06:11:06 10° N 06:16:20 48° WNW 06:21:32 10° SW
Helios 1B rocket 4.0 06:12:54 10° SE 06:16:41 37° ENE 06:20:29 10° N
MSX 4.5 06:11:47 10° NNE 06:17:31 62° ESE 06:23:13 10° S
SL-8 R/B 3.7 06:13:17 10° NW 06:18:06 82° SW 06:22:53 10° SE
Cosmos 2263 Rocket 2.6 06:12:58 10° SW 06:18:13 39° WNW 06:23:32 10° N
Cosmos 2221 4.2 06:18:22 10° WSW 06:20:21 13° WNW 06:22:20 10° NW
Cosmos 1844 Rocket 4.4 06:15:57 10° S 06:21:08 39° ESE 06:26:21 10° NE
GPS 2-05 Rocket1 2.6 06:19:16 11° WNW 06:22:22 86° NNE 06:25:40 10° ESE
AQUARIUS 4.1 06:18:36 10° N 06:23:06 77° WNW 06:27:34 10° SSW
SJ-7 4.3 06:21:45 10° N 06:25:47 72° WNW 06:29:51 10° SSW
Cosmos 1626 3.3 06:24:38 10° NW 06:27:37 23° W 06:30:36 10° SW
Coronas F rocket 2.3 06:25:58 10° NW 06:27:56 22° W 06:29:53 10° SSW
YAOGAN 1 2.5 06:24:08 10° N 06:28:28 78° WNW 06:32:46 10° SSW
CZ-3B DEB 3.7 06:28:03 10° SSE 06:28:33 10° SE 06:28:59 10° SE
Cosmos 1937 Rocket 3.5 06:24:57 10° SSW 06:30:02 64° WNW 06:35:08 10° N
Cosmos 2344 4.0 06:25:03 10° WSW 06:32:18 43° NW 06:40:11 10° NNE
